| time (UTC) | temp F | wind direction | speed knots | gust knots | rain 1hr in | rain 24hr in | rain mn in | humidity % | barometer mb |
| 20260507174007 | 63 | 70 | 4.3 | 7.8 | 0.00 | 0.09 | 0.00 | 62 | 1010.4 |
| 20260507173506 | 63 | 68 | 4.3 | 7.0 | 0.00 | 0.09 | 0.00 | 62 | 1010.3 |
| 20260507173007 | 63 | 77 | 3.5 | 7.8 | 0.00 | 0.09 | 0.00 | 62 | 1010.3 |
| 20260507172508 | 63 | 97 | 2.6 | 5.2 | 0.00 | 0.09 | 0.00 | 62 | 1010.2 |
| 20260507171505 | 63 | 80 | 5.2 | 8.7 | 0.00 | 0.09 | 0.00 | 61 | 1010.5 |
| 20260507170506 | 64 | 77 | 5.2 | 8.7 | 0.00 | 0.09 | 0.00 | 60 | 1010.4 |
| 20260507170006 | 64 | 74 | 5.2 | 10.4 | 0.00 | 0.09 | 0.00 | 60 | 1010.5 |
| 20260507165007 | 65 | 62 | 4.3 | 8.7 | 0.00 | 0.09 | 0.00 | 57 | 1010.3 |
| 20260507164506 | 64 | 65 | 5.2 | 7.8 | 0.00 | 0.09 | 0.00 | 60 | 1010.4 |
| 20260507163506 | 65 | 83 | 4.3 | 11.3 | 0.00 | 0.09 | 0.00 | 58 | 1010.5 |
| 20260507162505 | 65 | 65 | 2.6 | 8.7 | 0.00 | 0.09 | 0.00 | 59 | 1010.4 |
| 20260507162007 | 65 | 64 | 4.3 | 8.7 | 0.00 | 0.09 | 0.00 | 58 | 1010.5 |
| 20260507161006 | 64 | 69 | 5.2 | 11.3 | 0.00 | 0.09 | 0.00 | 58 | 1010.6 |
| 20260507160506 | 64 | 73 | 4.3 | 10.4 | 0.00 | 0.09 | 0.00 | 58 | 1010.6 |
| 20260507160006 | 64 | 72 | 4.3 | 10.4 | 0.00 | 0.09 | 0.00 | 58 | 1010.5 |
| 20260507155506 | 64 | 65 | 4.3 | 10.4 | 0.00 | 0.09 | 0.00 | 59 | 1010.6 |
| 20260507155006 | 64 | 57 | 5.2 | 10.4 | 0.00 | 0.09 | 0.00 | 59 | 1010.7 |
| 20260507154505 | 64 | 101 | 6.1 | 12.2 | 0.00 | 0.09 | 0.00 | 59 | 1010.6 |
| 20260507154008 | 65 | 92 | 5.2 | 10.4 | 0.00 | 0.09 | 0.00 | 60 | 1010.5 |
| 20260507153506 | 64 | 91 | 5.2 | 10.4 | 0.00 | 0.09 | 0.00 | 59 | 1010.6 |
| 20260507153006 | 64 | 89 | 5.2 | 8.7 | 0.00 | 0.09 | 0.00 | 59 | 1010.6 |
| 20260507152006 | 64 | 70 | 5.2 | 8.7 | 0.00 | 0.09 | 0.00 | 60 | 1010.8 |
| 20260507151506 | 63 | 82 | 5.2 | 7.8 | 0.00 | 0.09 | 0.00 | 59 | 1010.7 |
| 20260507151007 | 63 | 96 | 5.2 | 11.3 | 0.00 | 0.09 | 0.00 | 60 | 1010.8 |
| 20260507150506 | 63 | 78 | 7.0 | 11.3 | 0.00 | 0.09 | 0.00 | 58 | 1010.9 |
| 20260507150006 | 64 | 75 | 5.2 | 8.7 | 0.00 | 0.09 | 0.00 | 60 | 1011.0 |
| 20260507145505 | 64 | 107 | 4.3 | 7.0 | 0.00 | 0.09 | 0.00 | 59 | 1011.0 |
| 20260507145006 | 64 | 121 | 4.3 | 7.8 | 0.00 | 0.09 | 0.00 | 57 | 1011.1 |
| 20260507144506 | 64 | 79 | 5.2 | 7.8 | 0.00 | 0.09 | 0.00 | 56 | 1011.0 |
| 20260507144008 | 64 | 80 | 6.1 | 7.8 | 0.00 | 0.09 | 0.00 | 56 | 1011.1 |
| 20260507143506 | 64 | 73 | 3.5 | 7.0 | 0.00 | 0.09 | 0.00 | 58 | 1011.1 |
| 20260507143011 | 64 | 74 | 4.3 | 8.7 | 0.00 | 0.09 | 0.00 | 59 | 1011.1 |
| 20260507142506 | 64 | 76 | 5.2 | 8.7 | 0.00 | 0.09 | 0.00 | 59 | 1011.1 |
| 20260507141505 | 64 | 82 | 2.6 | 5.2 | 0.00 | 0.09 | 0.00 | 58 | 1011.2 |
| 20260507141007 | 64 | 115 | 5.2 | 12.2 | 0.00 | 0.09 | 0.00 | 57 | 1011.3 |
| 20260507140505 | 64 | 59 | 3.5 | 7.8 | 0.00 | 0.09 | 0.00 | 57 | 1011.2 |
| 20260507140006 | 64 | 98 | 3.5 | 7.8 | 0.00 | 0.09 | 0.00 | 58 | 1011.2 |
| 20260507135505 | 64 | 69 | 5.2 | 11.3 | 0.00 | 0.09 | 0.00 | 59 | 1011.3 |
| 20260507135005 | 63 | 71 | 5.2 | 11.3 | 0.00 | 0.09 | 0.00 | 59 | 1011.3 |
| 20260507134505 | 64 | 66 | 6.1 | 11.3 | 0.00 | 0.09 | 0.00 | 60 | 1011.4 |
| 20260507134006 | 64 | 48 | 3.5 | 7.8 | 0.00 | 0.09 | 0.00 | 59 | 1011.5 |
| 20260507133006 | 65 | 49 | 1.7 | 7.8 | 0.00 | 0.09 | 0.00 | 58 | 1011.5 |
| 20260507132505 | 65 | 62 | 1.7 | 5.2 | 0.00 | 0.09 | 0.00 | 61 | 1011.5 |
| 20260507131505 | 63 | 43 | 4.3 | 8.7 | 0.00 | 0.09 | 0.00 | 60 | 1011.7 |
| 20260507131006 | 63 | 74 | 4.3 | 6.1 | 0.00 | 0.09 | 0.00 | 61 | 1011.6 |
| 20260507130506 | 64 | 89 | 2.6 | 7.0 | 0.00 | 0.09 | 0.00 | 59 | 1011.7 |
| 20260507125505 | 63 | 59 | 3.5 | 7.0 | 0.00 | 0.09 | 0.00 | 61 | 1011.8 |
| 20260507125005 | 64 | 76 | 2.6 | 7.8 | 0.00 | 0.09 | 0.00 | 60 | 1011.8 |
| 20260507124504 | 63 | 80 | 6.1 | 10.4 | 0.00 | 0.09 | 0.00 | 61 | 1011.9 |
| 20260507123505 | 63 | 111 | 2.6 | 7.8 | 0.00 | 0.09 | 0.00 | 60 | 1011.9 |
| 20260507123005 | 63 | 79 | 5.2 | 10.4 | 0.00 | 0.09 | 0.00 | 58 | 1011.8 |
| 20260507122505 | 64 | 85 | 4.3 | 6.1 | 0.00 | 0.09 | 0.00 | 59 | 1011.9 |
| 20260507122005 | 63 | 63 | 1.7 | 7.0 | 0.00 | 0.09 | 0.00 | 61 | 1012.0 |
| 20260507121505 | 63 | 54 | 1.7 | 6.1 | 0.00 | 0.09 | 0.00 | 60 | 1012.2 |
| 20260507121005 | 62 | 59 | 3.5 | 7.8 | 0.00 | 0.09 | 0.00 | 62 | 1012.1 |
| 20260507120504 | 62 | 71 | 5.2 | 7.0 | 0.00 | 0.09 | 0.00 | 61 | 1012.2 |
| 20260507115504 | 63 | 64 | 2.6 | 7.0 | 0.00 | 0.09 | 0.00 | 61 | 1012.0 |
| 20260507115005 | 64 | 58 | 2.6 | 5.2 | 0.00 | 0.09 | 0.00 | 60 | 1012.1 |
| 20260507113505 | 62 | 152 | 3.5 | 8.7 | 0.00 | 0.09 | 0.00 | 60 | 1012.3 |
| 20260507112505 | 62 | 138 | 5.2 | 7.8 | 0.00 | 0.09 | 0.00 | 58 | 1012.2 |
| 20260507112005 | 63 | 95 | 1.7 | 10.4 | 0.00 | 0.09 | 0.00 | 61 | 1012.3 |
| 20260507111506 | 62 | 130 | 7.8 | 10.4 | 0.00 | 0.09 | 0.00 | 61 | 1012.3 |
| 20260507111005 | 61 | 192 | 2.6 | 10.4 | 0.00 | 0.09 | 0.00 | 62 | 1012.3 |
| 20260507110504 | 62 | 130 | 6.1 | 11.3 | 0.00 | 0.09 | 0.00 | 60 | 1012.6 |
| 20260507110005 | 63 | 138 | 3.5 | 10.4 | 0.00 | 0.09 | 0.00 | 58 | 1012.5 |
| 20260507105505 | 63 | 8 | 2.6 | 7.8 | 0.00 | 0.09 | 0.00 | 59 | 1012.5 |
| 20260507105005 | 61 | 119 | 3.5 | 11.3 | 0.00 | 0.09 | 0.00 | 62 | 1012.7 |
| 20260507104005 | 63 | 93 | 5.2 | 8.7 | 0.00 | 0.09 | 0.00 | 60 | 1012.6 |
| 20260507103505 | 64 | 18 | 2.6 | 4.3 | 0.00 | 0.09 | 0.00 | 60 | 1012.7 |
| 20260507103005 | 63 | 140 | 1.7 | 5.2 | 0.00 | 0.09 | 0.00 | 63 | 1012.5 |
| 20260507102505 | 61 | 64 | 2.6 | 8.7 | 0.00 | 0.09 | 0.00 | 61 | 1012.9 |
| 20260507102007 | 61 | 157 | 3.5 | 8.7 | 0.00 | 0.09 | 0.00 | 63 | 1012.8 |
| 20260507101507 | 61 | 157 | 3.5 | 10.4 | 0.00 | 0.09 | 0.00 | 63 | 1012.8 |
| 20260507100505 | 60 | 67 | 4.3 | 10.4 | 0.00 | 0.09 | 0.00 | 63 | 1012.9 |
| 20260507100005 | 60 | 126 | 7.0 | 10.4 | 0.00 | 0.09 | 0.00 | 65 | 1013.0 |
| 20260507095504 | 59 | 90 | 4.3 | 11.3 | 0.00 | 0.09 | 0.00 | 64 | 1012.8 |
| 20260507094505 | 59 | 104 | 7.8 | 11.3 | 0.00 | 0.09 | 0.00 | 65 | 1013.0 |
| 20260507093505 | 60 | 89 | 5.2 | 10.4 | 0.00 | 0.09 | 0.00 | 69 | 1012.7 |
| 20260507093006 | 59 | 77 | 5.2 | 11.3 | 0.00 | 0.09 | 0.00 | 69 | 1012.7 |
| 20260507092504 | 59 | 88 | 5.2 | 8.7 | 0.00 | 0.09 | 0.00 | 68 | 1012.8 |
| 20260507092005 | 60 | 80 | 2.6 | 8.7 | 0.00 | 0.09 | 0.00 | 69 | 1012.6 |
| 20260507091505 | 59 | 75 | 4.3 | 8.7 | 0.00 | 0.09 | 0.00 | 69 | 1013.0 |
| 20260507090504 | 58 | 92 | 6.1 | 10.4 | 0.00 | 0.09 | 0.00 | 70 | 1012.7 |
| 20260507090005 | 58 | 93 | 6.1 | 8.7 | 0.00 | 0.09 | 0.00 | 71 | 1012.8 |
| 20260507084505 | 58 | 71 | 6.1 | 8.7 | 0.00 | 0.10 | 0.00 | 72 | 1012.6 |
| 20260507084005 | 58 | 118 | 3.5 | 7.0 | 0.00 | 0.10 | 0.00 | 72 | 1012.6 |
| 20260507083505 | 57 | 110 | 7.8 | 13.0 | 0.00 | 0.10 | 0.00 | 71 | 1012.7 |
| 20260507083005 | 56 | 103 | 5.2 | 8.7 | 0.00 | 0.10 | 0.00 | 72 | 1012.6 |
| 20260507082504 | 57 | 81 | 7.8 | 12.2 | 0.00 | 0.10 | 0.00 | 71 | 1012.8 |
| 20260507082006 | 56 | 83 | 6.1 | 8.7 | 0.00 | 0.10 | 0.00 | 71 | 1012.8 |
| 20260507081505 | 56 | 81 | 6.1 | 8.7 | 0.00 | 0.11 | 0.00 | 72 | 1012.9 |
| 20260507081006 | 56 | 70 | 4.3 | 7.0 | 0.00 | 0.11 | 0.00 | 74 | 1012.8 |
| 20260507080006 | 55 | 109 | 4.3 | 7.8 | 0.00 | 0.11 | 0.00 | 76 | 1012.9 |
| 20260507075505 | 55 | 95 | 5.2 | 8.7 | 0.00 | 0.11 | 0.00 | 76 | 1012.7 |
| 20260507075005 | 55 | 94 | 4.3 | 8.7 | 0.00 | 0.12 | 0.00 | 77 | 1012.7 |
| 20260507074505 | 54 | 96 | 5.2 | 8.7 | 0.00 | 0.12 | 0.00 | 78 | 1012.8 |
| 20260507074006 | 55 | 103 | 5.2 | 7.8 | 0.00 | 0.13 | 0.00 | 77 | 1012.9 |
| 20260507073504 | 55 | 115 | 3.5 | 8.7 | 0.00 | 0.13 | 0.00 | 79 | 1012.7 |
| 20260507072505 | 53 | 82 | 6.1 | 7.8 | 0.00 | 0.13 | 0.00 | 81 | 1012.6 |
| 20260507072006 | 53 | 83 | 6.1 | 10.4 | 0.00 | 0.13 | 0.00 | 81 | 1012.6 |
| 20260507071505 | 53 | 91 | 3.5 | 7.0 | 0.00 | 0.13 | 0.00 | 83 | 1012.5 |
| 20260507071005 | 53 | 64 | 4.3 | 8.7 | 0.00 | 0.13 | 0.00 | 83 | 1012.6 |
| 20260507070504 | 52 | 107 | 4.3 | 7.0 | 0.00 | 0.13 | 0.00 | 84 | 1012.7 |
| 20260507070010 | 52 | 93 | 4.3 | 7.8 | 0.00 | 0.13 | 0.00 | 85 | 1012.6 |
| 20260507065505 | 52 | 83 | 5.2 | 7.8 | 0.00 | 0.14 | 0.00 | 86 | 1012.4 |
| 20260507065006 | 51 | 70 | 2.6 | 7.0 | 0.00 | 0.14 | 0.00 | 88 | 1012.5 |
| 20260507064505 | 51 | 87 | 2.6 | 4.3 | 0.00 | 0.14 | 0.00 | 89 | 1012.5 |
| 20260507064005 | 50 | 108 | 4.3 | 6.1 | 0.00 | 0.15 | 0.00 | 89 | 1012.6 |
| 20260507063504 | 50 | 83 | 2.6 | 6.1 | 0.00 | 0.15 | 0.00 | 91 | 1012.4 |
| 20260507062504 | 49 | 80 | 4.3 | 6.1 | 0.00 | 0.15 | 0.00 | 92 | 1012.5 |
| 20260507062005 | 49 | 73 | 4.3 | 7.8 | 0.00 | 0.15 | 0.00 | 92 | 1012.4 |
| 20260507061505 | 49 | 72 | 2.6 | 7.0 | 0.00 | 0.16 | 0.00 | 93 | 1012.5 |
| 20260507061005 | 49 | 78 | 2.6 | 5.2 | 0.00 | 0.16 | 0.00 | 93 | 1012.3 |
| 20260507060505 | 49 | 66 | 2.6 | 4.3 | 0.00 | 0.16 | 0.00 | 94 | 1012.5 |
| 20260507055504 | 49 | 68 | 1.7 | 4.3 | 0.00 | 0.16 | 0.00 | 94 | 1012.6 |
| 20260507054505 | 49 | 24 | 0.0 | 2.6 | 0.00 | 0.17 | 0.00 | 94 | 1012.5 |
| 20260507054005 | 49 | 77 | 2.6 | 5.2 | 0.00 | 0.17 | 0.00 | 94 | 1012.1 |
| 20260507053505 | 48 | 80 | 2.6 | 4.3 | 0.00 | 0.17 | 0.00 | 94 | 1012.3 |
| 20260507053005 | 48 | 80 | 1.7 | 4.3 | 0.00 | 0.18 | 0.00 | 94 | 1012.3 |
| 20260507052506 | 48 | 67 | 2.6 | 4.3 | 0.00 | 0.18 | 0.00 | 94 | 1012.2 |
| 20260507052006 | 48 | 74 | 1.7 | 6.1 | 0.00 | 0.19 | 0.00 | 95 | 1012.0 |
| 20260507051504 | 48 | 82 | 2.6 | 6.1 | 0.00 | 0.19 | 0.00 | 95 | 1012.1 |
| 20260507051005 | 48 | 81 | 2.6 | 5.2 | 0.00 | 0.19 | 0.00 | 95 | 1012.0 |
| 20260507050005 | 48 | 71 | 3.5 | 6.1 | 0.00 | 0.19 | 0.00 | 95 | 1012.1 |
| 20260507045006 | 48 | 83 | 3.5 | 6.1 | 0.00 | 0.19 | 0.00 | 95 | 1012.1 |
| 20260507044505 | 48 | 83 | 3.5 | 6.1 | 0.00 | 0.19 | 0.00 | 95 | 1012.1 |
| 20260507044005 | 48 | 75 | 1.7 | 5.2 | 0.00 | 0.19 | 0.00 | 95 | 1012.0 |
| 20260507043505 | 48 | 23 | 0.9 | 4.3 | 0.00 | 0.19 | 0.00 | 95 | 1012.0 |
| 20260507043005 | 48 | 54 | 0.9 | 4.3 | 0.00 | 0.19 | 0.00 | 95 | 1011.7 |
| 20260507042504 | 48 | 59 | 1.7 | 6.1 | 0.00 | 0.19 | 0.00 | 95 | 1011.8 |
| 20260507042005 | 48 | 75 | 2.6 | 7.0 | 0.00 | 0.19 | 0.00 | 95 | 1011.5 |
| 20260507041005 | 48 | 78 | 4.3 | 7.0 | 0.00 | 0.19 | 0.00 | 95 | 1011.6 |
| 20260507040505 | 48 | 75 | 2.6 | 5.2 | 0.00 | 0.19 | 0.00 | 95 | 1011.9 |
| 20260507040005 | 48 | 64 | 1.7 | 6.1 | 0.00 | 0.19 | 0.00 | 94 | 1011.7 |
| 20260507035505 | 48 | 73 | 4.3 | 7.8 | 0.00 | 0.19 | 0.00 | 94 | 1011.7 |
| 20260507034005 | 48 | 72 | 4.3 | 7.0 | 0.00 | 0.19 | 0.00 | 94 | 1011.8 |
| 20260507033505 | 48 | 66 | 1.7 | 6.1 | 0.00 | 0.19 | 0.00 | 93 | 1011.7 |
| 20260507033005 | 48 | 62 | 4.3 | 7.8 | 0.00 | 0.19 | 0.00 | 93 | 1011.8 |
| 20260507032505 | 48 | 72 | 4.3 | 7.0 | 0.00 | 0.19 | 0.00 | 93 | 1011.7 |
| 20260507032005 | 48 | 80 | 4.3 | 7.0 | 0.00 | 0.19 | 0.00 | 93 | 1011.5 |
| 20260507031504 | 47 | 81 | 4.3 | 7.0 | 0.00 | 0.19 | 0.00 | 94 | 1011.7 |
| 20260507031005 | 47 | 81 | 2.6 | 5.2 | 0.00 | 0.19 | 0.00 | 94 | 1011.6 |
| 20260507030005 | 47 | 102 | 0.0 | 2.6 | 0.00 | 0.19 | 0.00 | 93 | 1011.6 |
| 20260507025504 | 47 | 7 | 0.9 | 4.3 | 0.00 | 0.19 | 0.00 | 93 | 1011.7 |
| 20260507025005 | 48 | 77 | 1.7 | 5.2 | 0.00 | 0.19 | 0.00 | 92 | 1011.6 |
| 20260507024505 | 48 | 54 | 1.7 | 4.3 | 0.00 | 0.19 | 0.00 | 92 | 1011.5 |
| 20260507024005 | 48 | 58 | 0.9 | 4.3 | 0.00 | 0.19 | 0.00 | 91 | 1011.5 |
| 20260507023505 | 48 | 60 | 1.7 | 6.1 | 0.00 | 0.19 | 0.00 | 91 | 1011.4 |
| 20260507023005 | 49 | 65 | 3.5 | 6.1 | 0.00 | 0.19 | 0.00 | 91 | 1011.5 |
| 20260507022504 | 49 | 69 | 2.6 | 6.1 | 0.00 | 0.19 | 0.00 | 90 | 1011.3 |
| 20260507022006 | 49 | 63 | 0.9 | 5.2 | 0.00 | 0.19 | 0.00 | 90 | 1011.5 |
| 20260507021505 | 49 | 27 | 0.9 | 5.2 | 0.00 | 0.19 | 0.00 | 89 | 1011.6 |
| 20260507021005 | 50 | 52 | 1.7 | 6.1 | 0.00 | 0.19 | 0.00 | 89 | 1011.4 |
| 20260507020005 | 50 | 72 | 4.3 | 7.8 | 0.00 | 0.19 | 0.00 | 88 | 1011.5 |
| 20260507015505 | 50 | 63 | 3.5 | 6.1 | 0.00 | 0.19 | 0.00 | 88 | 1011.5 |
| 20260507015005 | 50 | 57 | 2.6 | 6.1 | 0.00 | 0.19 | 0.00 | 88 | 1011.5 |
| 20260507014505 | 50 | 68 | 1.7 | 6.1 | 0.00 | 0.19 | 0.00 | 88 | 1011.4 |
| 20260507013505 | 51 | 70 | 1.7 | 6.1 | 0.00 | 0.19 | 0.00 | 89 | 1011.6 |
| 20260507013005 | 51 | 53 | 1.7 | 5.2 | 0.00 | 0.19 | 0.00 | 89 | 1011.6 |
| 20260507012504 | 51 | 53 | 0.9 | 5.2 | 0.00 | 0.19 | 0.00 | 88 | 1011.4 |
| 20260507012005 | 51 | 59 | 1.7 | 6.1 | 0.00 | 0.19 | 0.00 | 88 | 1011.5 |
| 20260507011504 | 51 | 50 | 0.9 | 4.3 | 0.00 | 0.19 | 0.00 | 88 | 1011.4 |
| 20260507011005 | 51 | 51 | 1.7 | 5.2 | 0.00 | 0.19 | 0.00 | 88 | 1011.5 |
| 20260507010505 | 51 | 57 | 1.7 | 6.1 | 0.00 | 0.19 | 0.00 | 88 | 1011.4 |
| 20260507010005 | 51 | 52 | 1.7 | 4.3 | 0.00 | 0.19 | 0.00 | 88 | 1011.2 |
| 20260507005505 | 52 | 82 | 1.7 | 5.2 | 0.00 | 0.19 | 0.00 | 88 | 1011.5 |
| 20260507005005 | 52 | 55 | 1.7 | 4.3 | 0.00 | 0.19 | 0.00 | 88 | 1011.4 |
| 20260507004505 | 52 | 101 | 1.7 | 7.0 | 0.00 | 0.19 | 0.00 | 87 | 1011.5 |
| 20260507004005 | 52 | 78 | 4.3 | 7.8 | 0.00 | 0.19 | 0.00 | 87 | 1011.4 |
| 20260507003005 | 52 | 71 | 3.5 | 6.1 | 0.00 | 0.19 | 0.00 | 89 | 1011.5 |
| 20260507002504 | 52 | 61 | 2.6 | 6.1 | 0.00 | 0.19 | 0.00 | 89 | 1011.5 |
| 20260507002005 | 52 | 76 | 2.6 | 6.1 | 0.00 | 0.19 | 0.00 | 89 | 1011.6 |
| 20260507001505 | 52 | 71 | 3.5 | 6.1 | 0.00 | 0.19 | 0.00 | 90 | 1011.7 |
| 20260507001004 | 52 | 64 | 2.6 | 5.2 | 0.00 | 0.19 | 0.00 | 93 | 1011.6 |
| 20260507000004 | 53 | 27 | 0.9 | 4.3 | 0.00 | 0.19 | 0.00 | 96 | 1011.6 |
| 20260506235504 | 53 | 21 | 1.7 | 2.6 | 0.00 | 0.19 | 0.00 | 96 | 1011.6 |
| 20260506235005 | 53 | 16 | 1.7 | 4.3 | 0.00 | 0.19 | 0.00 | 96 | 1011.5 |
| 20260506234505 | 53 | 11 | 1.7 | 2.6 | 0.00 | 0.19 | 0.00 | 96 | 1011.5 |
| 20260506234004 | 53 | 14 | 1.7 | 2.6 | 0.00 | 0.19 | 0.00 | 97 | 1011.6 |
| 20260506233505 | 53 | 9 | 1.7 | 2.6 | 0.00 | 0.19 | 0.00 | 97 | 1011.6 |
| 20260506233006 | 53 | 24 | 0.9 | 2.6 | 0.00 | 0.19 | 0.00 | 97 | 1011.5 |
| 20260506232004 | 53 | 17 | 0.9 | 1.7 | 0.00 | 0.19 | 0.00 | 97 | 1011.7 |
| 20260506231504 | 53 | 65 | 0.0 | 0.9 | 0.00 | 0.19 | 0.00 | 97 | 1011.3 |
| 20260506231005 | 53 | 27 | 0.0 | 0.0 | 0.00 | 0.19 | 0.00 | 96 | 1011.4 |
| 20260506230504 | 53 | 27 | 0.0 | 0.9 | 0.00 | 0.19 | 0.00 | 96 | 1011.5 |
| 20260506230004 | 53 | 39 | 0.0 | 0.9 | 0.09 | 0.19 | 0.09 | 96 | 1011.5 |
| 20260506225005 | 53 | 108 | 0.9 | 1.7 | 0.00 | 0.19 | 0.09 | 96 | 1011.5 |
| 20260506224504 | 53 | 158 | 0.9 | 1.7 | 0.00 | 0.19 | 0.09 | 96 | 1011.4 |
| 20260506224004 | 53 | 39 | 0.0 | 0.9 | 0.00 | 0.19 | 0.09 | 96 | 1011.4 |
| 20260506223505 | 53 | 311 | 0.0 | 0.0 | 0.00 | 0.19 | 0.09 | 96 | 1011.5 |
| 20260506223005 | 53 | 311 | 0.0 | 0.0 | 0.00 | 1.10 | 0.09 | 96 | 1011.5 |
| 20260506222505 | 53 | 311 | 0.0 | 0.0 | 0.00 | 1.10 | 0.09 | 96 | 1011.5 |
| 20260506222005 | 53 | 311 | 0.0 | 0.9 | 0.00 | 1.10 | 0.09 | 96 | 1011.4 |
| 20260506221504 | 53 | 356 | 0.0 | 0.9 | 0.00 | 1.10 | 0.09 | 96 | 1011.4 |
| 20260506221004 | 53 | 336 | 0.0 | 0.9 | 0.00 | 1.10 | 0.09 | 95 | 1011.5 |
| 20260506220505 | 53 | 24 | 0.0 | 0.9 | 0.00 | 1.10 | 0.09 | 95 | 1011.3 |
| 20260506220004 | 53 | 91 | 0.0 | 0.9 | 0.00 | 1.01 | 0.00 | 95 | 1011.4 |
| 20260506215005 | 53 | 39 | 0.0 | 0.9 | 0.00 | 1.01 | 0.09 | 95 | 1011.4 |
| 20260506214004 | 53 | 316 | 0.0 | 0.9 | 0.00 | 1.01 | 0.09 | 94 | 1011.2 |
| 20260506213504 | 53 | 329 | 0.0 | 0.0 | 0.00 | 1.01 | 0.09 | 94 | 1011.4 |
| 20260506213005 | 53 | 329 | 0.0 | 0.9 | 0.00 | 1.01 | 0.09 | 94 | 1011.3 |
| 20260506212504 | 53 | 314 | 0.9 | 1.7 | 0.00 | 1.01 | 0.09 | 94 | 1011.2 |
| 20260506212005 | 53 | 314 | 0.9 | 1.7 | 0.00 | 1.01 | 0.09 | 93 | 1011.1 |
| 20260506211504 | 53 | 158 | 0.0 | 0.0 | 0.00 | 1.01 | 0.09 | 93 | 1011.1 |
| 20260506211005 | 53 | 158 | 0.0 | 0.0 | 0.00 | 1.01 | 0.09 | 93 | 1011.0 |
| 20260506210504 | 53 | 158 | 0.0 | 0.9 | 0.00 | 1.01 | 0.09 | 93 | 1011.1 |
| 20260506210005 | 53 | 57 | 0.0 | 0.9 | 0.00 | 1.02 | 0.09 | 92 | 1011.2 |
| 20260506205005 | 53 | 106 | 0.0 | 0.9 | 0.00 | 1.03 | 0.09 | 92 | 1011.1 |
| 20260506204504 | 53 | 105 | 0.0 | 0.9 | 0.00 | 1.04 | 0.09 | 91 | 1011.2 |
| 20260506203504 | 54 | 342 | 0.0 | 0.9 | 0.00 | 1.05 | 0.09 | 91 | 1010.9 |
| 20260506203004 | 54 | 311 | 0.0 | 0.9 | 0.00 | 1.05 | 0.09 | 90 | 1011.0 |
| 20260506202505 | 54 | 316 | 0.9 | 1.7 | 0.00 | 1.05 | 0.09 | 90 | 1011.0 |
| 20260506202005 | 54 | 232 | 0.0 | 0.9 | 0.00 | 1.06 | 0.09 | 89 | 1010.9 |
| 20260506201505 | 54 | 2 | 0.0 | 0.0 | 0.00 | 1.06 | 0.09 | 89 | 1010.8 |
| 20260506201005 | 54 | 2 | 0.0 | 0.9 | 0.00 | 1.06 | 0.09 | 89 | 1010.7 |
| 20260506200506 | 54 | 356 | 0.0 | 0.9 | 0.00 | 1.06 | 0.09 | 89 | 1010.7 |
| 20260506200005 | 54 | 2 | 0.0 | 0.9 | 0.00 | 1.07 | 0.09 | 88 | 1010.7 |
| 20260506195505 | 54 | 70 | 0.0 | 2.6 | 0.00 | 1.07 | 0.09 | 88 | 1010.7 |
| 20260506195006 | 55 | 78 | 0.0 | 2.6 | 0.00 | 1.07 | 0.09 | 88 | 1010.6 |
| 20260506194505 | 55 | 73 | 1.7 | 2.6 | 0.00 | 1.09 | 0.09 | 87 | 1010.5 |
| 20260506194006 | 55 | 69 | 1.7 | 4.3 | 0.00 | 1.09 | 0.09 | 86 | 1010.5 |
| 20260506193505 | 55 | 66 | 1.7 | 2.6 | 0.00 | 1.11 | 0.09 | 86 | 1010.3 |
| 20260506193005 | 55 | 72 | 1.7 | 4.3 | 0.00 | 1.12 | 0.09 | 85 | 1010.4 |
| 20260506192005 | 55 | 61 | 0.9 | 4.3 | 0.00 | 1.15 | 0.09 | 84 | 1010.4 |
| 20260506191505 | 55 | 64 | 1.7 | 4.3 | 0.00 | 1.16 | 0.09 | 83 | 1010.2 |
| 20260506191006 | 55 | 63 | 1.7 | 5.2 | 0.00 | 1.17 | 0.09 | 82 | 1010.3 |
| 20260506190505 | 55 | 63 | 2.6 | 5.2 | 0.00 | 1.17 | 0.09 | 82 | 1010.1 |
| 20260506190006 | 55 | 65 | 4.3 | 5.2 | 0.00 | 1.17 | 0.09 | 81 | 1010.2 |
| 20260506185006 | 56 | 76 | 2.6 | 6.1 | 0.00 | 1.18 | 0.09 | 81 | 1010.1 |
| 20260506184506 | 56 | 67 | 3.5 | 6.1 | 0.00 | 1.21 | 0.09 | 80 | 1010.0 |
| 20260506184006 | 56 | 45 | 1.7 | 7.0 | 0.00 | 1.23 | 0.09 | 79 | 1010.0 |
| 20260506183505 | 57 | 51 | 2.6 | 6.1 | 0.00 | 1.25 | 0.09 | 78 | 1010.0 |
| 20260506183006 | 58 | 68 | 1.7 | 5.2 | 0.00 | 1.26 | 0.09 | 77 | 1010.0 |
| 20260506182505 | 58 | 19 | 0.0 | 1.7 | 0.00 | 1.26 | 0.09 | 75 | 1009.8 |
| 20260506182006 | 58 | 10 | 0.0 | 1.7 | 0.00 | 1.26 | 0.09 | 72 | 1009.9 |
| 20260506181505 | 58 | 10 | 0.0 | 1.7 | 0.00 | 1.26 | 0.09 | 72 | 1009.9 |
| 20260506180505 | 58 | 348 | 0.9 | 1.7 | 0.00 | 1.26 | 0.09 | 70 | 1009.8 |
| 20260506175505 | 58 | 4 | 0.0 | 1.7 | 0.00 | 1.26 | 0.09 | 70 | 1009.8 |
| 20260506175005 | 58 | 10 | 0.9 | 1.7 | 0.00 | 1.26 | 0.09 | 70 | 1009.7 |
| 20260506174505 | 58 | 11 | 0.9 | 1.7 | 0.00 | 1.26 | 0.09 | 70 | 1009.5 |